Location: Newark
(50.8547°N, 2.7256°E)
Time: 06:43:27
(UTC+00:00)

Envisat - Pass Details

Date: 24 January 2020
Orbit: 764 x 766 km, 98.1° (Epoch: 27 February)

Event Time Altitude Azimuth Distance (km) Brightness Sun altitude
Rises 05:07:43 0° 28° (NNE) 3,245 6.6 -23.2°
Reaches altitude 10° 05:11:05 10° 52° (NE) 2,312 6.1 -22.7°
Maximum altitude 05:13:56 15° 86° (E) 1,984 6.1 -22.2°
Drops below altitude 10° 05:16:47 10° 121° (ESE) 2,302 6.4 -21.8°
Sets 05:20:07 0° 144° (SE) 3,221 6.8 -21.2°
